Theta_e
327 325 324 321 319 319 319 319 318 318 319 319 317 316 315 314 314 313 313 312 311 310 309 308 308 307 307 308 308 309 309 310 310 309 309 309 310 311 310 310 309 309 308 307 307 307 307 307 306 305 305 305 305 305 305 305 305 305 304 304 304 304 304 303 303 303 303 303 302
327 326 323 318 317 318 319 319 318 319 319 319 318 317 316 315 314 314 313 312 311 310 309 309 308 308 308 308 309 309 309 310 310 309 309 310 310 310 310 310 309 309 308 307 307 306 306 307 306 305 305 305 305 305 305 305 304 304 304 303 303 303 303 303 303 303 303 303 302
328 326 324 322 321 320 319 319 320 320 319 319 318 317 317 316 315 314 313 312 311 310 310 309 308 308 309 309 309 310 310 310 310 310 310 310 310 311 310 310 309 308 307 307 307 306 306 306 306 305 304 304 304 304 304 305 304 304 304 303 303 303 303 302 303 303 303 302 302
328 327 325 323 322 321 320 319 319 320 320 319 319 318 317 316 316 315 313 312 311 310 310 309 309 309 309 309 310 310 310 309 309 310 310 310 310 310 310 310 309 308 307 307 307 306 306 306 306 305 305 304 304 304 304 304 304 304 303 303 303 303 302 302 302 302 302 302 302
328 327 325 324 323 322 321 321 321 321 321 320 318 317 317 316 315 314 313 311 311 310 310 310 310 309 309 310 310 310 310 309 307 308 310 309 310 310 310 310 309 308 307 307 307 307 306 306 306 305 305 305 304 304 304 304 304 304 303 303 303 303 303 302 302 302 302 302 302
328 327 326 324 323 322 321 321 321 322 321 320 318 317 316 316 315 314 312 311 310 310 310 309 309 308 309 310 310 310 310 310 309 309 309 309 310 310 310 309 308 307 307 306 306 307 307 306 305 305 305 304 304 304 304 304 304 303 303 302 303 303 303 303 302 302 302 301 301
328 327 326 324 323 322 322 321 321 322 321 320 318 317 317 316 315 313 312 310 310 310 309 308 308 308 309 310 310 309 309 309 309 309 309 309 309 309 308 308 307 307 306 306 306 306 306 306 305 304 303 303 303 303 304 304 304 303 303 302 302 302 303 303 302 302 301 301 301
328 327 326 325 323 323 322 321 321 321 321 319 318 317 317 316 314 313 312 311 310 310 309 309 310 310 309 309 309 309 309 309 309 309 309 309 309 308 308 307 306 306 306 305 305 305 305 305 305 304 304 303 302 302 303 304 303 303 302 302 302 302 303 303 303 302 302 301 301
328 328 327 325 324 324 323 322 322 321 320 319 317 316 316 316 314 313 312 312 311 310 310 310 310 310 310 310 309 309 308 308 308 308 309 309 308 308 307 306 306 305 305 305 305 305 305 305 305 304 304 302 302 302 303 304 303 303 302 302 302 302 303 303 303 302 302 301 301
328 328 327 326 325 325 324 323 322 322 321 319 317 317 315 313 314 314 313 312 311 311 311 310 311 310 310 310 309 309 308 308 308 307 307 307 307 307 306 306 305 305 305 305 305 305 305 304 304 304 304 303 302 302 302 303 302 302 302 302 302 302 302 302 302 302 301 301 301
328 328 327 326 326 325 324 324 323 322 321 319 318 317 316 314 315 314 314 312 311 311 311 311 311 310 310 309 309 308 308 308 307 307 307 307 306 306 306 305 305 305 304 304 305 305 304 304 304 304 303 303 302 301 301 302 302 301 301 302 301 301 301 301 301 301 301 300 300
329 328 328 327 327 326 325 324 323 322 320 319 318 318 317 317 317 315 313 313 311 311 311 311 311 310 309 308 309 308 307 307 307 307 307 307 306 306 306 305 305 304 304 304 304 304 304 304 304 303 303 303 302 301 301 301 301 301 301 301 301 301 300 300 301 300 300 300 300
328 328 328 327 327 327 326 325 323 321 320 319 318 318 317 317 316 314 313 313 311 311 311 311 310 310 309 308 308 308 307 307 307 306 306 306 306 306 305 305 305 304 304 304 305 304 304 304 304 303 302 302 302 301 301 301 301 301 301 301 300 300 300 300 300 300 300 300 299
329 328 328 327 327 327 326 324 322 321 319 319 318 318 317 317 315 313 312 312 311 310 310 310 309 308 308 308 308 307 307 307 307 307 306 306 306 305 305 305 305 304 304 304 305 305 304 304 304 303 302 301 301 301 302 302 302 301 301 301 300 300 300 300 300 300 300 300 300
329 328 328 328 327 326 325 323 321 320 320 319 318 318 317 316 314 312 311 311 310 310 310 309 308 308 308 309 309 308 308 307 307 306 306 305 305 305 305 305 304 304 304 304 305 305 304 304 304 303 302 301 300 301 302 303 302 302 301 301 300 300 300 300 300 300 300 300 300
328 328 328 327 326 325 324 322 321 320 319 319 318 317 316 314 313 312 311 310 310 310 310 309 309 309 309 309 309 308 308 307 307 306 306 305 305 305 305 305 304 304 304 304 305 305 305 305 304 303 302 300 300 301 302 303 303 303 302 302 301 300 300 300 300 300 300 301 300
327 327 327 327 326 325 323 322 321 320 319 318 318 317 315 314 313 312 310 310 310 310 311 311 311 310 310 309 308 308 308 307 306 306 305 305 304 304 305 305 305 304 304 304 304 304 304 305 305 304 302 301 301 301 302 303 303 303 303 302 301 301 300 300 300 300 300 300 300
326 327 327 327 326 325 323 322 320 319 318 317 317 316 316 315 314 313 312 311 312 312 312 312 312 311 310 309 309 308 307 307 306 305 305 305 305 305 305 305 305 305 305 304 304 303 303 303 304 304 303 302 302 302 302 303 303 303 302 302 301 301 301 300 300 300 300 300 300
326 326 326 326 325 325 323 321 320 318 317 317 317 317 316 315 315 315 314 313 313 313 313 313 312 311 310 309 309 307 306 306 306 305 305 305 305 305 305 305 305 305 305 304 304 303 303 303 303 303 302 301 302 302 302 302 302 302 302 301 301 301 301 301 300 300 300 300 299
325 325 325 326 325 325 324 321 320 318 317 317 317 317 316 315 315 315 315 314 314 314 314 313 312 311 310 309 308 307 306 306 305 305 305 305 305 305 306 306 306 305 305 304 303 303 303 303 303 302 301 301 301 302 302 302 302 301 301 301 301 300 300 300 300 300 300 300 300
324 324 324 325 325 325 323 322 320 319 318 318 317 317 316 316 315 315 315 315 315 315 314 313 312 311 310 308 307 307 306 306 305 305 304 305 305 306 306 306 306 305 304 303 303 303 303 302 302 301 301 301 301 301 301 301 301 301 301 301 301 301 301 301 300 300 300 300 300
323 323 323 323 324 323 322 322 321 320 319 318 317 317 317 317 316 316 316 315 314 314 313 313 313 312 310 308 307 307 306 306 305 305 305 305 305 306 306 306 305 305 304 303 303 303 303 303 302 302 302 301 301 301 301 300 300 300 300 300 300 300 300 300 300 300 300 300 300
323 323 322 322 322 321 320 320 319 319 318 317 317 317 317 317 316 316 314 313 312 312 312 312 312 311 309 308 307 306 306 306 305 305 306 306 306 306 307 307 305 304 303 303 303 302 302 302 302 302 301 301 301 301 301 300 300 300 299 299 300 299 300 300 300 300 299 300 300
322 321 320 320 319 319 318 318 318 317 317 316 316 317 317 317 316 314 312 311 311 310 310 310 309 309 309 307 306 306 305 305 305 305 306 306 307 307 306 306 305 304 304 305 304 303 302 301 302 301 300 301 301 301 301 301 300 300 299 299 299 299 299 299 299 299 299 299 299
320 319 317 317 316 316 316 315 315 315 315 315 315 315 316 316 315 314 312 310 310 310 309 308 308 308 308 308 307 306 306 306 306 306 306 306 307 306 306 305 304 304 304 303 298 297 297 297 299 300 300 301 301 301 301 301 300 300 300 300 299 299 298 298 298 299 299 299 299
318 317 316 315 314 313 313 313 313 314 314 313 314 314 314 314 314 313 311 310 309 309 309 308 307 306 306 306 306 306 306 306 306 307 306 306 306 305 305 304 304 305 304 299 294 293 294 295 296 297 299 301 301 301 300 300 300 300 300 300 299 299 298 298 298 298 298 298 298
316 316 315 315 313 313 312 312 312 313 313 313 313 312 312 312 312 311 311 309 308 307 307 306 306 305 304 305 305 305 305 306 307 307 306 306 305 304 303 303 303 303 300 295 293 292 294 295 294 295 297 301 301 300 299 299 300 300 300 300 299 299 299 298 298 298 298 298 298
316 315 315 315 314 313 312 312 312 312 312 312 312 312 312 311 310 310 309 309 308 307 306 305 305 305 305 305 305 305 305 306 307 307 306 305 304 303 303 301 301 300 298 293 292 293 294 294 294 294 295 297 300 300 299 299 299 299 299 299 299 299 298 298 298 298 298 297 297
315 315 315 314 313 313 313 312 312 311 311 311 311 311 311 310 309 309 308 308 307 306 305 305 305 306 306 305 305 305 305 306 306 305 305 304 304 302 302 301 300 298 295 291 292 293 294 294 294 293 294 295 298 299 299 299 299 299 299 299 299 298 298 298 298 298 298 297 297
314 314 313 313 313 313 313 312 312 312 312 311 311 311 310 309 309 308 307 306 306 305 305 305 305 305 305 304 304 304 304 304 304 304 303 302 301 301 300 299 300 298 295 291 292 293 293 294 293 293 292 292 296 297 298 298 299 299 298 298 298 298 299 298 298 297 297 296 296
313 313 312 312 312 312 312 312 312 312 312 311 310 310 309 308 308 307 306 306 305 305 304 305 304 304 304 304 304 303 303 303 303 302 301 300 299 299 299 299 299 298 295 291 292 293 293 293 293 292 291 291 293 296 298 298 298 298 298 298 298 299 298 298 298 297 296 296 295
312 312 311 311 311 311 311 311 311 311 311 310 309 309 308 308 307 307 306 305 305 304 304 304 303 303 303 303 303 302 302 301 301 300 300 299 299 299 299 299 299 298 295 291 292 293 293 293 292 292 291 290 292 296 299 298 298 298 298 299 299 299 298 297 297 296 296 296 295
312 311 311 310 310 310 310 311 311 310 310 309 308 308 307 307 307 306 306 305 305 304 304 303 303 302 302 302 302 301 301 301 300 299 299 299 299 299 299 299 300 298 296 291 292 292 292 292 291 291 290 289 292 295 298 298 298 298 298 298 298 298 297 297 297 296 296 296 295
311 311 310 310 310 310 310 310 310 310 309 308 307 307 307 306 306 305 305 304 304 304 304 303 303 303 302 302 301 301 300 299 300 300 300 300 300 300 300 300 300 299 295 291 291 291 291 291 291 291 290 289 292 294 296 297 297 297 297 297 297 297 297 297 297 296 296 296 296
310 310 310 310 310 310 309 309 309 308 308 307 306 306 307 306 306 306 305 304 303 304 304 303 303 302 302 302 301 301 300 299 300 300 301 300 300 300 300 300 301 297 293 291 291 291 291 291 291 290 290 289 292 294 295 296 296 296 296 296 296 296 297 297 297 297 297 297 297
310 310 310 310 310 309 309 308 307 307 306 306 306 306 306 306 306 306 305 303 303 303 303 303 302 302 301 301 301 301 300 300 300 301 301 300 300 300 300 300 301 297 292 291 291 291 291 290 290 290 290 290 292 294 295 295 295 295 295 296 296 296 297 297 297 297 297 298 297
310 310 310 310 309 308 307 307 306 306 306 306 307 306 306 306 307 306 305 303 303 303 302 302 302 301 301 301 301 301 301 301 301 300 300 299 299 299 299 299 300 297 292 290 290 290 290 290 290 289 290 292 293 294 294 295 295 296 296 296 297 297 297 298 298 298 298 298 298
310 310 309 308 308 307 307 306 306 306 306 306 307 307 307 306 306 306 304 302 303 302 302 302 302 302 302 302 302 301 301 301 300 299 299 298 298 298 298 298 300 298 294 290 290 290 290 290 289 290 290 293 294 295 295 296 296 296 297 296 297 297 297 297 298 298 298 298 296
309 309 308 307 307 306 306 306 306 306 306 306 306 306 306 306 305 304 303 302 303 303 302 302 302 302 301 301 300 300 300 300 299 299 298 299 299 298 298 299 300 299 296 290 290 289 290 290 289 289 290 292 295 296 297 297 297 297 296 296 296 296 297 297 298 298 298 298 296
308 308 308 307 307 306 306 306 306 306 306 306 305 305 305 305 304 303 303 302 303 303 302 302 301 301 300 298 298 299 299 299 299 299 299 299 299 298 297 299 301 300 297 291 289 289 289 290 290 289 290 292 295 297 297 297 296 296 295 295 295 296 296 297 298 298 298 298 297
308 308 307 307 307 306 306 305 305 306 306 306 305 304 304 303 303 302 302 302 302 301 301 300 300 300 299 298 298 299 299 300 300 301 301 300 300 299 298 300 301 301 300 294 290 289 290 290 290 290 290 292 296 297 297 296 295 294 295 295 296 296 297 297 297 298 298 298 298
Wind_Speed
15 13 11 10 9 9 9 8 8 8 8 8 9 9 9 9 9 9 9 9 8 8 8 8 8 9 10 13 14 15 15 14 14 13 13 13 12 12 12 11 11 11 11 11 11 10 10 10 8 6 5 5 6 6 6 5 6 6 6 6 6 6 6 7 7 7 7 8 6
16 15 13 11 10 9 9 9 8 8 8 8 8 9 9 9 9 9 9 9 8 8 7 7 9 10 11 14 14 14 14 14 14 14 13 13 13 12 12 11 11 12 12 11 11 10 9 10 8 7 6 5 6 6 6 6 6 7 7 8 6 5 6 6 7 7 8 8 7
16 15 14 13 12 10 9 9 9 9 10 9 8 8 9 9 9 8 8 8 8 8 8 7 9 11 12 14 13 13 13 13 14 13 13 12 12 12 12 11 12 12 12 11 11 10 9 10 8 7 6 6 6 6 6 7 7 7 7 8 6 5 5 5 6 6 6 6 7
16 16 15 14 14 13 11 8 9 10 10 9 9 9 9 8 8 8 8 9 9 9 9 9 9 10 12 13 14 14 13 13 14 13 13 12 12 13 12 12 12 12 12 11 11 11 11 10 8 7 6 7 7 7 6 6 7 7 6 6 6 5 5 5 5 5 5 6 7
17 16 15 14 15 14 12 8 10 10 10 9 9 9 9 8 8 8 8 9 9 9 10 11 10 10 11 13 15 15 15 14 13 13 12 12 12 12 12 13 12 12 12 12 12 12 11 11 8 7 7 7 7 7 7 8 8 7 6 5 5 5 5 5 5 5 5 5 6
16 16 16 14 15 14 12 10 11 11 10 10 10 10 10 8 8 8 9 9 9 10 12 12 11 11 12 13 15 15 14 14 13 12 12 13 12 12 13 13 13 12 12 12 12 12 12 11 8 7 6 6 7 7 8 9 8 7 7 6 6 6 6 6 6 5 6 6 7
17 17 17 16 16 15 13 11 11 11 11 11 12 13 12 11 10 10 10 9 9 10 11 11 11 11 12 13 13 14 13 13 12 13 13 13 12 13 13 13 13 13 13 13 13 13 12 11 8 7 6 6 6 7 9 9 8 7 7 6 6 6 6 7 6 6 6 8 9
17 17 17 17 17 16 15 14 13 12 11 10 12 14 14 13 13 12 10 9 9 10 10 10 12 12 12 12 13 13 13 14 13 13 13 12 13 13 13 13 14 14 14 14 13 13 12 10 8 7 7 6 6 7 9 10 9 8 7 7 6 6 6 6 6 6 7 9 9
16 17 17 17 18 18 17 16 15 14 13 12 13 14 14 13 13 13 12 11 10 11 11 10 12 13 13 13 14 14 14 14 14 14 13 13 13 14 14 14 14 15 14 14 14 14 14 10 8 7 7 6 6 7 8 9 9 8 8 7 7 7 7 7 7 8 8 9 9
16 17 17 17 18 18 18 18 17 16 15 14 15 14 13 13 13 13 12 10 10 11 11 11 13 13 14 14 14 14 14 13 14 14 14 14 14 15 15 14 15 15 14 14 14 14 14 11 9 8 8 7 7 8 8 9 9 9 8 7 7 8 9 9 9 9 9 9 9
17 17 17 16 18 18 18 18 17 16 16 15 16 15 15 14 14 13 12 11 11 12 13 12 13 14 14 13 13 13 13 13 13 14 15 15 15 16 16 15 15 15 15 14 13 13 12 10 10 10 10 8 9 9 9 9 9 9 9 8 9 10 11 10 10 10 9 9 10
18 17 17 17 18 18 18 18 16 15 16 16 16 16 15 15 15 14 13 13 12 13 13 13 14 14 13 12 13 13 13 13 14 14 15 16 16 16 16 16 16 16 16 15 14 12 11 11 12 12 12 11 9 8 8 9 9 10 11 11 11 11 11 11 11 10 9 9 10
18 17 17 17 18 18 18 17 15 14 15 16 16 15 15 14 15 15 15 15 14 13 12 13 13 13 13 12 12 12 13 14 15 15 15 16 16 17 17 16 16 16 16 15 14 13 12 12 13 13 13 12 10 8 8 9 10 11 11 12 12 12 12 12 11 10 10 10 10
18 17 17 17 17 17 16 16 14 13 14 15 15 14 14 14 15 15 14 14 14 13 12 12 12 12 12 12 12 13 14 15 16 16 16 16 16 17 17 16 17 16 16 14 14 14 14 14 14 14 14 13 12 10 10 9 10 11 12 13 13 12 12 11 11 11 11 11 11
18 17 17 17 17 16 15 15 13 12 13 15 14 14 13 13 13 13 13 14 14 13 12 12 11 11 12 13 14 15 16 16 17 17 17 16 17 17 17 16 17 16 15 14 14 15 15 15 15 14 14 13 13 12 10 10 10 11 12 12 12 12 11 11 11 11 11 11 11
17 17 17 17 16 15 14 14 11 11 12 13 13 13 13 12 12 12 13 14 14 13 13 14 13 12 12 14 15 16 17 17 17 17 17 16 17 17 17 16 16 16 16 16 15 14 14 14 14 13 13 13 12 11 10 10 11 11 12 12 12 11 11 11 11 11 12 12 12
17 17 17 17 16 16 15 14 12 11 12 13 13 13 12 12 12 12 13 15 14 14 15 16 15 14 14 14 15 15 15 15 16 16 16 16 16 16 16 16 16 16 16 16 16 15 15 14 12 12 12 12 11 10 10 10 10 11 12 12 11 11 11 11 11 12 12 13 13
16 16 16 16 16 16 16 15 13 12 12 13 13 13 12 12 12 12 13 15 15 16 17 17 16 15 14 15 14 14 13 14 15 15 15 15 16 16 16 16 15 16 16 16 16 16 15 14 13 12 11 10 10 9 9 9 10 11 12 12 11 11 11 12 12 12 12 13 13
15 16 16 16 16 16 16 15 14 14 13 13 12 11 12 12 13 13 14 16 16 17 17 17 16 15 15 15 15 13 13 13 15 15 15 15 15 16 16 16 16 16 16 16 16 15 15 14 13 12 11 10 9 9 8 9 10 11 12 12 12 12 12 13 13 13 13 14 14
15 15 15 15 15 15 15 15 14 14 14 13 12 11 12 13 14 15 15 16 16 16 16 16 15 15 15 15 15 14 13 12 14 15 15 15 15 15 15 16 16 16 16 16 15 15 14 14 13 12 12 10 10 9 9 9 10 11 12 11 12 12 13 13 13 14 14 14 15
14 14 14 14 14 14 14 13 14 14 13 12 12 11 12 13 14 15 15 15 14 14 15 15 15 14 14 14 14 14 13 11 12 13 14 14 15 15 15 15 15 15 15 15 14 14 14 13 13 12 11 10 10 9 9 10 11 11 12 12 12 12 13 13 13 14 14 15 15
12 12 12 12 12 12 12 12 12 12 12 11 11 10 10 10 11 12 12 11 11 11 12 13 13 13 13 13 13 13 12 10 11 12 13 13 13 14 14 14 15 15 15 15 14 13 13 12 12 12 11 10 10 10 10 10 11 12 13 13 13 13 13 13 13 14 15 15 16
11 10 10 10 10 10 10 9 10 11 11 10 9 8 7 7 8 7 6 5 6 7 8 9 9 10 11 11 12 12 12 12 12 13 13 13 13 13 13 13 14 14 14 13 12 12 11 10 11 11 11 9 9 10 10 10 11 12 13 14 14 14 14 14 14 14 15 15 15
8 8 7 6 7 7 8 8 9 10 10 9 8 8 8 7 6 4 4 3 4 5 6 7 7 7 9 10 11 12 13 13 14 14 14 14 13 13 13 12 12 12 11 8 7 7 8 7 8 9 9 8 8 9 9 10 11 12 13 14 14 14 14 14 14 14 15 15 15
7 6 6 6 6 6 7 8 8 9 9 9 9 9 10 9 8 6 5 5 5 7 8 9 9 8 8 9 11 12 13 14 15 15 15 14 14 13 12 11 10 8 5 3 4 5 6 6 6 6 7 6 7 8 9 10 11 12 13 13 13 13 13 14 14 15 15 16 14
7 7 7 7 7 7 8 8 9 9 9 9 9 10 11 11 9 9 8 8 8 9 10 11 11 10 9 9 11 12 13 13 14 14 14 13 13 12 11 9 7 4 3 4 6 7 7 6 5 5 5 6 7 8 9 10 11 12 13 14 13 13 13 14 14 15 15 15 14
8 8 9 8 9 9 9 9 9 10 10 10 10 10 10 10 10 10 10 10 10 10 11 11 11 10 9 10 12 14 14 13 13 13 13 12 12 11 10 8 5 3 4 6 8 8 7 6 5 5 5 7 9 9 10 10 11 12 13 13 13 13 14 14 15 15 15 14 14
9 9 9 10 10 10 11 11 11 11 11 11 11 10 10 10 10 10 11 11 11 11 10 10 10 9 8 8 11 13 14 13 11 10 10 10 10 10 9 6 4 4 5 8 9 9 8 6 6 6 7 9 11 11 11 10 10 11 12 12 13 13 14 14 14 14 14 14 14
9 9 9 10 10 10 10 11 11 11 11 11 10 10 10 10 10 10 10 11 11 10 9 8 8 7 7 7 9 11 12 11 9 8 8 9 9 9 8 6 6 6 7 9 9 9 8 7 7 9 11 12 11 10 9 9 9 10 11 11 12 12 13 13 12 12 12 13 13
9 9 9 9 9 9 9 9 9 9 9 9 9 9 9 9 9 9 10 10 10 10 8 7 7 7 7 7 7 8 8 8 8 8 9 10 10 9 8 7 6 7 9 10 9 9 8 9 10 13 14 15 12 9 8 9 9 10 11 11 12 13 13 13 13 13 13 12 12
8 8 8 8 8 8 8 8 8 7 7 7 7 8 8 8 8 8 8 9 9 8 8 8 8 8 8 7 7 7 7 7 7 8 9 10 10 9 9 8 7 7 8 11 9 9 10 12 15 16 17 16 11 9 8 10 11 11 12 12 13 14 14 13 13 13 13 13 13
8 8 8 7 7 7 7 6 6 6 6 6 7 7 7 7 7 7 7 7 7 8 8 9 9 9 8 8 7 7 7 7 7 8 8 9 9 9 8 7 7 7 7 11 11 12 14 16 18 18 18 17 12 10 10 11 12 13 14 15 16 15 14 12 11 12 14 15 15
7 7 7 7 7 7 6 6 6 5 5 6 6 6 6 6 6 7 7 7 7 8 9 9 9 9 8 8 8 8 8 8 8 8 8 8 8 8 7 6 7 7 9 13 14 16 17 18 18 18 17 16 12 11 11 11 11 12 13 14 14 14 14 13 13 13 14 16 15
7 7 7 7 7 6 6 6 5 5 5 5 5 5 5 6 6 6 7 6 6 7 7 7 7 7 7 7 7 8 8 8 8 9 9 8 8 7 7 7 7 7 10 15 17 17 18 18 17 16 15 13 10 9 10 11 11 11 11 12 12 12 12 13 14 15 16 17 16
6 6 6 6 6 6 6 6 6 6 5 5 5 5 5 5 6 6 6 6 6 6 6 6 6 6 6 7 7 8 8 8 9 9 9 9 8 8 8 9 9 8 10 16 17 18 17 16 15 14 11 9 7 7 8 10 10 10 10 11 11 12 14 15 15 16 16 17 17
6 6 6 6 6 7 7 7 7 6 6 5 5 5 5 5 5 5 5 5 6 6 6 6 6 6 7 7 8 8 9 9 9 9 8 8 8 9 9 10 10 8 9 15 16 17 16 15 13 11 9 7 6 6 6 7 7 8 10 11 12 14 15 16 16 16 16 16 17
7 6 6 6 7 7 7 7 6 6 6 5 5 5 5 6 5 5 5 6 6 7 7 6 7 7 8 8 8 8 8 8 7 7 6 7 8 8 9 10 10 8 9 12 14 14 13 12 11 9 8 6 5 5 6 6 6 7 10 12 13 14 15 15 15 16 16 17 17
7 7 7 7 7 7 7 7 6 6 6 6 5 5 5 5 5 5 6 6 6 7 7 7 7 7 7 7 6 6 6 6 6 5 6 7 7 8 9 10 10 8 8 10 11 11 10 9 9 9 7 6 6 5 5 6 6 8 9 11 12 13 14 13 12 13 15 17 17
8 8 7 7 7 8 8 7 7 6 6 6 6 6 6 5 5 6 6 5 6 6 6 6 6 5 5 5 4 4 5 5 6 6 6 7 8 8 8 9 8 6 7 9 9 9 8 9 9 9 8 6 6 6 6 6 7 8 9 10 10 12 12 12 12 12 13 16 17
8 8 8 7 8 8 8 8 7 6 6 6 6 6 6 6 6 6 5 5 4 4 5 5 5 5 5 4 4 5 5 6 7 7 7 7 6 5 4 6 5 4 5 10 10 10 9 9 10 11 10 7 6 6 6 6 7 8 9 10 10 10 11 11 11 11 12 14 15
8 8 8 8 8 8 8 8 8 7 6 6 6 6 6 6 6 6 5 4 4 4 5 5 5 6 5 5 5 5 6 6 6 6 5 5 4 2 2 3 4 4 3 9 10 10 10 11 12 12 11 7 6 6 5 5 7 8 10 11 10 10 10 11 11 11 12 14 14
Wind_Direction
194 193 191 189 190 193 196 199 202 204 203 199 197 195 194 196 195 193 191 191 191 191 190 191 191 192 193 192 192 192 194 195 193 193 193 193 192 190 188 185 180 178 178 178 176 178 184 191 192 193 195 197 200 199 198 198 201 206 210 214 216 217 219 221 223 225 227 231 234
195 193 191 188 189 192 196 198 200 202 203 201 200 197 196 197 197 196 193 190 188 187 188 191 192 193 194 194 193 193 194 195 193 192 193 195 193 191 189 186 182 180 180 181 178 180 185 192 194 194 194 195 199 200 199 199 201 207 213 216 217 217 219 221 224 226 228 231 233
195 193 191 189 190 192 194 196 197 199 201 202 202 200 199 198 199 197 192 185 184 184 187 192 193 194 195 194 194 194 194 195 193 193 193 195 194 192 189 187 183 182 181 183 182 183 187 192 195 196 196 194 196 198 200 200 202 207 213 217 217 217 217 220 223 224 226 229 231
195 194 193 191 191 192 192 193 195 198 201 203 204 203 201 199 200 196 190 183 185 188 191 194 195 194 194 194 193 194 194 194 193 193 194 196 196 193 190 187 184 183 183 185 186 187 189 192 195 198 198 196 197 199 200 200 201 205 211 215 217 219 219 220 220 221 224 227 229
195 195 195 191 191 191 191 193 196 200 203 207 205 203 201 200 200 195 190 186 190 192 194 197 197 195 194 192 192 192 193 193 193 193 194 196 196 194 190 188 185 184 185 188 190 191 192 193 196 199 199 198 197 200 202 201 202 203 206 209 214 218 220 221 219 220 222 224 226
196 196 195 191 189 190 191 195 201 204 206 206 205 203 200 198 198 196 193 191 193 194 196 197 199 197 195 192 191 190 191 192 192 193 194 196 197 194 190 188 187 186 187 190 192 193 194 196 198 199 199 198 199 202 205 205 205 204 204 207 211 216 221 221 220 220 221 224 227
197 197 195 191 189 190 193 196 203 206 206 204 204 203 202 199 198 196 193 191 192 193 195 197 199 198 195 191 190 189 189 191 192 194 195 196 196 194 190 188 188 188 190 192 194 194 196 199 201 200 197 196 200 204 206 209 208 207 208 211 214 218 221 223 221 221 223 226 229
200 198 196 192 191 192 195 198 203 205 204 203 204 204 203 201 197 194 191 191 193 194 195 197 198 197 195 191 189 188 189 190 192 194 195 196 196 194 191 189 190 191 192 194 195 195 196 200 204 202 197 195 200 204 207 210 211 212 214 218 222 223 223 224 223 223 226 228 230
201 199 197 195 195 196 197 200 203 204 204 203 204 203 202 200 197 195 194 196 197 196 196 197 198 197 195 193 190 188 189 190 192 193 194 195 195 194 192 191 193 194 195 195 196 196 197 199 205 203 199 195 200 203 205 208 211 214 218 225 230 231 230 227 224 225 227 229 230
202 200 198 198 199 200 201 201 203 204 204 204 203 201 200 199 199 197 197 198 198 197 197 197 196 196 196 195 192 190 189 191 192 192 193 195 196 195 194 193 195 196 196 196 197 198 198 199 204 204 200 197 201 203 204 206 210 215 220 226 233 237 237 233 228 227 227 229 231
203 201 199 200 200 202 203 203 203 203 202 202 201 200 200 201 201 200 199 197 197 198 198 196 195 195 196 195 193 192 190 191 192 193 194 195 197 197 197 196 197 197 198 197 197 198 199 200 203 203 200 198 202 204 204 205 211 218 224 228 233 238 240 240 235 231 230 231 232
204 203 202 202 202 203 204 203 203 202 201 200 200 200 200 201 200 199 198 196 196 198 198 196 194 194 194 195 194 193 192 193 194 195 195 196 197 198 199 198 199 200 200 198 197 198 200 201 202 201 200 198 200 204 207 208 214 221 226 229 232 237 241 243 240 237 235 234 235
206 205 205 205 205 204 204 202 202 200 200 200 200 200 199 199 198 198 197 196 196 196 197 196 194 194 195 195 194 193 193 195 196 196 197 197 198 199 200 200 201 202 202 200 198 199 201 202 202 202 201 198 200 204 209 214 219 224 227 229 231 235 239 243 244 243 242 241 241
208 208 208 208 206 205 203 201 200 199 199 200 200 200 198 197 196 195 195 195 195 196 196 195 194 194 195 196 197 196 196 197 198 198 198 198 199 201 202 202 202 203 203 201 200 201 203 203 202 202 202 200 202 205 211 217 224 228 229 229 231 234 238 242 245 246 245 245 245
209 210 210 210 208 205 202 199 198 199 200 200 200 199 197 193 192 192 193 195 196 196 196 195 195 196 198 201 204 203 200 199 199 199 199 199 201 203 204 205 204 204 204 203 202 203 205 205 203 202 201 201 204 208 212 219 226 230 231 231 233 235 238 241 244 246 246 246 246
210 210 211 210 208 204 200 197 197 198 200 200 199 197 194 190 188 190 192 195 197 198 198 198 197 197 200 205 205 203 201 200 199 200 200 201 203 205 206 208 206 206 205 205 204 204 206 207 204 202 201 202 207 212 217 224 229 232 233 233 235 237 240 243 245 246 246 246 246
211 211 211 210 208 204 200 197 197 198 199 199 198 195 193 189 188 191 195 198 200 201 202 202 200 198 198 201 203 202 201 200 200 201 202 204 205 206 208 209 209 208 207 207 206 205 205 205 203 201 201 204 210 216 223 230 234 234 233 233 234 237 241 244 246 246 246 246 246
211 211 211 210 208 205 201 198 198 198 198 198 197 195 194 192 194 197 201 203 204 205 206 205 202 199 197 197 199 201 201 201 202 203 204 205 206 207 208 210 211 211 210 210 208 206 205 203 201 201 203 208 213 220 228 236 239 238 235 233 234 236 240 243 245 246 246 246 246
211 211 211 211 209 206 203 200 199 198 197 196 198 200 200 200 203 205 206 205 206 207 208 207 203 200 197 197 198 199 201 203 204 205 206 207 208 209 210 211 212 212 212 213 211 208 204 200 199 200 204 210 216 222 229 237 241 240 238 236 236 237 239 241 243 245 246 246 246
211 211 211 211 211 208 205 201 199 198 196 195 199 204 206 206 208 210 209 207 206 207 208 208 204 201 198 197 198 199 201 204 206 207 207 208 210 212 213 214 214 214 214 214 213 209 203 197 196 199 204 212 218 224 230 236 240 241 241 240 240 241 242 243 244 245 246 247 247
212 212 212 212 212 210 207 203 200 199 197 196 200 205 209 211 213 213 212 207 204 204 206 209 206 202 199 197 199 200 202 204 207 208 210 212 214 217 218 218 217 216 214 214 213 209 203 195 194 198 205 213 219 226 232 236 238 240 240 242 243 244 245 246 247 247 248 248 249
211 211 211 210 211 210 208 204 202 201 200 199 202 206 212 217 219 218 214 205 198 199 204 209 209 205 200 197 200 201 202 204 207 211 214 216 219 221 223 223 220 217 215 213 212 207 200 192 193 198 205 214 222 228 233 236 238 239 241 242 244 246 247 248 249 250 250 251 251
211 209 207 206 207 208 208 206 205 204 203 204 207 214 224 232 230 223 208 187 183 191 201 208 211 207 202 198 200 202 203 203 207 212 217 220 223 225 225 224 221 218 215 214 210 204 196 190 195 201 208 217 226 232 235 236 238 241 243 244 246 247 248 250 251 252 252 253 253
203 200 195 193 198 203 208 208 207 208 208 209 216 227 237 240 234 216 184 162 184 203 210 209 208 207 203 200 202 204 205 205 208 213 218 222 224 225 224 222 220 218 215 209 197 187 183 185 197 206 214 223 231 237 239 238 240 243 246 248 249 250 252 253 255 256 256 256 255
181 179 177 178 186 195 202 206 209 210 212 214 221 227 231 232 225 210 193 187 205 217 220 217 211 207 205 204 206 208 209 211 213 216 219 222 222 221 219 217 216 213 203 164 143 146 158 172 192 208 220 228 234 239 242 242 243 245 247 249 251 253 255 256 257 258 259 259 257
174 177 180 182 187 195 202 209 213 216 218 219 219 220 221 220 214 206 199 198 203 208 211 211 208 205 205 208 211 213 215 217 219 220 221 221 218 215 213 211 203 184 132 109 119 131 147 164 179 198 218 232 236 239 241 242 243 246 248 250 252 253 255 256 257 258 259 260 258
183 189 193 194 197 201 206 211 216 220 223 224 223 220 215 210 205 201 200 200 201 202 203 206 206 205 205 209 213 215 217 219 221 222 220 216 212 209 206 204 183 139 106 111 124 135 148 161 170 186 210 232 237 238 239 240 243 246 249 251 251 252 253 254 257 258 259 259 257
192 196 200 202 205 207 209 211 215 218 221 223 223 220 215 208 205 202 201 199 198 197 198 201 205 205 204 208 212 215 216 216 216 215 213 208 206 203 198 188 157 124 113 124 132 140 149 159 171 187 207 225 233 236 236 238 243 247 249 250 250 250 250 252 255 257 259 259 256
195 198 202 206 209 210 211 211 212 214 216 217 218 216 213 208 206 203 199 197 194 192 191 195 198 198 198 201 208 212 212 209 202 196 194 197 198 195 188 177 155 132 123 130 135 141 150 164 181 194 205 215 225 230 234 238 245 249 251 251 249 249 249 251 253 256 258 258 256
191 194 199 205 209 211 211 211 211 210 210 211 210 209 208 205 204 200 196 193 189 186 184 185 186 185 186 190 196 202 203 198 186 180 181 187 190 187 183 180 171 149 134 135 137 145 158 178 192 201 206 210 216 224 234 241 248 251 252 252 250 250 251 253 255 257 258 257 254
186 189 194 200 205 208 210 210 208 206 204 203 203 203 202 199 197 194 190 187 182 178 175 177 178 179 180 181 186 191 193 189 178 176 179 183 184 184 185 188 195 174 147 142 148 161 177 192 200 205 207 208 212 220 231 241 246 249 251 250 250 250 252 255 257 258 258 257 255
181 184 189 194 197 200 202 202 199 197 194 194 195 196 194 190 186 183 182 181 174 173 173 177 180 182 183 182 185 188 189 185 180 179 181 183 185 186 188 190 208 199 172 158 168 180 192 200 204 207 208 207 211 219 227 236 242 246 249 250 251 252 253 255 257 258 258 258 255
177 181 184 188 189 189 189 186 181 179 179 183 186 185 182 176 175 177 178 179 176 177 180 184 187 187 187 185 185 186 187 186 184 183 183 185 187 188 190 192 213 211 194 177 183 191 198 204 207 209 210 210 214 220 227 233 239 244 248 250 252 255 257 258 260 260 259 258 255
173 177 180 182 179 174 168 162 156 155 161 171 174 174 174 173 178 182 184 182 180 182 185 188 190 189 186 184 184 186 187 188 188 186 186 185 188 193 199 206 219 213 195 182 188 194 201 206 209 212 213 212 219 228 234 237 242 246 251 255 257 259 260 262 262 261 259 257 255
169 173 173 170 162 154 147 144 142 145 153 166 167 170 176 185 192 193 188 179 176 178 181 183 185 184 183 183 186 188 189 187 189 189 189 189 194 201 209 218 225 211 186 179 187 194 200 205 208 210 210 208 220 232 239 242 247 253 257 262 264 264 264 264 262 261 258 256 255
161 161 158 152 144 140 138 139 141 146 153 162 168 176 184 195 197 192 181 167 166 169 172 176 180 182 183 183 187 188 189 188 189 190 191 194 201 207 214 224 227 210 182 177 185 191 197 201 202 200 196 197 213 228 237 244 251 258 262 265 266 265 265 263 261 259 257 256 256
147 143 141 140 138 137 137 138 144 149 154 160 172 181 188 192 186 175 163 157 163 167 171 175 180 183 183 183 186 187 187 185 183 184 189 196 204 210 216 226 227 210 184 179 184 188 191 192 188 182 180 190 209 224 234 243 252 260 264 266 265 264 264 263 261 259 258 257 257
134 133 134 139 139 138 138 138 144 150 155 161 171 178 181 181 168 156 152 158 168 170 171 173 177 179 178 177 176 176 176 174 172 176 187 200 208 213 219 228 228 209 180 177 179 179 177 173 167 166 172 191 209 223 236 247 255 260 263 265 265 264 263 262 260 259 257 256 255
129 131 136 141 141 141 141 141 145 150 155 162 166 168 167 163 150 145 148 160 168 168 164 163 162 159 153 149 150 158 167 176 179 185 195 206 212 217 224 232 233 206 167 163 164 161 158 156 159 166 177 197 217 233 246 256 261 264 264 265 265 265 263 261 260 259 258 257 253
127 131 136 140 141 142 143 142 143 147 153 158 157 155 150 143 135 134 139 148 150 146 142 140 139 137 135 139 153 169 181 188 189 191 196 206 207 216 230 238 244 215 162 147 149 151 155 160 167 175 186 207 228 244 256 263 266 267 266 265 265 264 263 261 260 260 260 261 257
125 129 132 134 137 139 139 137 137 140 143 145 140 134 128 124 122 125 128 130 130 128 128 132 138 141 146 159 170 177 181 184 181 179 183 194 187 183 206 237 253 245 181 139 146 155 165 171 177 184 192 212 233 249 259 264 266 266 265 264 264 264 265 264 263 262 262 263 262